Regional Weather Roundup
Issued by NWS

Home | Current Version | Previous Version | Graphics & Text | Print | Product List | Glossary On
Versions: 1 2 3 4 5 6 7 8 9 10 11 12 13 14 15 16 17 18 19 20 21 22 23 24 25 26 27 28 29 30 31 32 33 34 35 36 37 38 39 40 41 42 43 44 45 46 47 48 49 50
000
ASUS43 KLSX 222107
RWRMO

WEATHER SUMMARY FOR MISSOURI
NATIONAL WEATHER SERVICE SPRINGFIELD MO
300 PM CST WED FEB 22 2017

NOTE: "FAIR" INDICATES FEW OR NO CLOUDS BELOW 12,000 FEET WITH NO
       SIGNIFICANT WEATHER AND/OR OBSTRUCTIONS TO VISIBILITY.
       CURRENT SKY AND/OR WEATHER CONDITIONS ARE NOT AVAILABLE FOR
       CHILLICOTHE AND FARMINGTON.

MOZ001>031-035>038-043-044-053-054-222200-
...NORTHERN AND WESTERN MISSOURI...

CITY           SKY/WX    TMP DP  RH WIND       PRES   REMARKS
KANSAS CTY INT PTSUNNY   79  34  19 W14       29.64F
KANSAS C DTWN  SUNNY     80  35  19 SW9       29.63S
LEE`S SUMMIT   SUNNY     78  39  24 SW15G23   29.65F
ST JOSEPH      SUNNY     77  37  23 W9        29.63F
CHILLICOTHE      N/A     74  45  35 MISG      29.65F
KIRKSVILLE     SUNNY     74  44  34 SW21G29   29.63F

$$
MOZ066>068-077>081-088>096-101>105-222200-
...SOUTHWEST MISSOURI...

CITY           SKY/WX    TMP DP  RH WIND       PRES   REMARKS
SPRINGFIELD    SUNNY     70  55  59 S10       29.74F
JOPLIN         SUNNY     77  45  32 SW16      29.72F
BRANSON        MOSUNNY   73  55  53 CALM      29.77F

$$
MOZ032>034-039>042-045>050-055>058-069>072-222200-
...CENTRAL MISSOURI...

CITY           SKY/WX    TMP DP  RH WIND       PRES   REMARKS
COLUMBIA       SUNNY     67  55  65 S14       29.71F
JEFFERSON CITY SUNNY     65  54  67 S9        29.72F
ROLLA          SUNNY     68  56  65 SW12      29.74F
SEDALIA        MOSUNNY   74  48  39 S18       29.70F
WHITEMAN AFB   MOSUNNY   73  47  40 SW12      29.67S
WARRENSBURG    MOSUNNY   70  45  40 S12       29.67F

$$
MOZ051-052-059>065-222200-
...EAST CENTRAL MISSOURI...

CITY           SKY/WX    TMP DP  RH WIND       PRES   REMARKS
ST LOUIS INTL  PTSUNNY   71  56  58 W5        29.73F
SPIRIT OF STL  PTSUNNY   69  58  67 W6        29.72F
ST CHARLES     MOSUNNY   64  57  78 W5        29.73F

$$
MOZ072>076-082>087-097>100-106>115-222200-
...SOUTH CENTRAL AND SOUTHEAST MISSOURI...

CITY           SKY/WX    TMP DP  RH WIND       PRES   REMARKS
CAPE GIRARDEAU MOSUNNY   70  56  61 SW13      29.79F
FARMINGTON     SUNNY     72  54  53 S13       29.76F
POPLAR BLUFF   MOSUNNY   69  58  67 SW9       29.79F
WEST PLAINS    SUNNY     67  55  65 S9        29.81F

$$



USA.gov is the U.S. government's official web portal to all federal, state and local government web resources and services.